Change the Weather History Date:

Thursday, October 27, 2011

  Actual Average Record
Temperature  
Mean Temperature 76 °F -  
Max Temperature 85 °F - - ()
Min Temperature 66 °F - - ()
Cooling Degree Days 10    
Growing Degree Days 26 (Base 50)    
Moisture  
Dew Point 34 °F    
Average Humidity 21    
Maximum Humidity 35    
Minimum Humidity 8    
Precipitation  
Precipitation 0.00 in - - ()
Sea Level Pressure  
Sea Level Pressure 29.96 in    
Wind  
Wind Speed 5 mph ()    
Max Wind Speed 14 mph    
Max Gust Speed -    
Visibility 9.7 miles    
Events Rain    
T = Trace of Precipitation, MM = Missing Value Source: Averaged Metar Reports

Daily Weather History Graph

Daily Weather History Graph

Search for Another Location

Airport or City:

Trip Planner

Search our weather history database for the weather conditions in past years. The results will help you decide how hot, cold, wet, or windy it might be!

Date:

Astronomy

Oct. 27, 2011 Rise Set
Actual Time 5:33 AM SAST 6:30 PM SAST
Civil Twilight 5:09 AM SAST 6:54 PM SAST
Nautical Twilight 4:41 AM SAST 7:22 PM SAST
Astronomical Twilight 4:12 AM SAST 7:51 PM SAST
Moon 5:41 AM SAST (10/27) 7:25 PM SAST (10/27)
Length of Visible Light 13h 45m
Length of Day
12h 57m
New Moon, 1% of the Moon is Illuminated
Oct 27
New Moon
Nov 2
First Quarter
Nov 10
Full
Nov 18
Last Quarter
Nov 25
New

Hourly Weather History & Observations

Time (SAST) Temp. Dew Point Humidity Pressure Visibility Wind Dir Wind Speed Gust Speed Precip Events Conditions
12:00 AM 69.8 °F 30.2 °F 23% 29.89 in - ESE 3.5 mph - N/A   Unknown
1:00 AM 68.0 °F 33.8 °F 28% 29.89 in - NE 6.9 mph - N/A   Unknown
2:00 AM 70 °F 31 °F 14%  in - NNE 4.6 mph - -  
2:00 AM 69.8 °F 32.0 °F 25% 29.92 in - NNE 4.6 mph - N/A   Unknown
3:00 AM 68.0 °F 32.0 °F 26% 29.89 in - NNE 6.9 mph - N/A   Unknown
4:00 AM 68.0 °F 32.0 °F 26% 29.89 in - ENE 2.3 mph - N/A   Unknown
5:00 AM 69 °F 32 °F 15%  in 19 mi NNE 4.6 mph - -   Scattered Clouds
5:00 AM 68.0 °F 32.0 °F 26% 29.92 in 6.2 mi NNE 4.6 mph - N/A   Mostly Cloudy
6:00 AM 68.0 °F 32.0 °F 26% 29.92 in - ENE 3.5 mph - N/A   Clear
7:00 AM 66.2 °F 37.4 °F 35% 29.95 in 6.2 mi East 3.5 mph - N/A   Mostly Cloudy
8:00 AM 70 °F 37 °F 19%  in 6 mi NE 3.5 mph - - Rain Light Rain
8:00 AM 69.8 °F 35.6 °F 28% 29.98 in 6.2 mi NE 2.3 mph - N/A   Mostly Cloudy
8:40 AM 73.4 °F 33.8 °F 23% 30.01 in - NNE 3.5 mph - N/A   Clear
9:00 AM 73.4 °F 35.6 °F 25% 29.98 in - North 4.6 mph - N/A   Clear
10:00 AM 78.8 °F 32.0 °F 18% 30.01 in - North 6.9 mph - N/A   Clear
10:16 AM 82.4 °F 32.0 °F 16% 30.01 in - North 8.1 mph - N/A   Clear
11:00 AM 82 °F 35 °F 10%  in 19 mi SW 8.1 mph - -   Mostly Cloudy
11:00 AM 80.6 °F 33.8 °F 18% 30.01 in - SW 6.9 mph - N/A   Clear
12:00 PM 80.6 °F 33.8 °F 18% 30.01 in 6.2 mi West 4.6 mph - N/A   Mostly Cloudy
1:00 PM 82.4 °F 32.0 °F 16% 29.98 in 6.2 mi West 4.6 mph - N/A   Mostly Cloudy
2:00 PM 84 °F 33 °F 8%  in 19 mi WSW 6.9 mph - -   Scattered Clouds
2:00 PM 82.4 °F 32.0 °F 16% 29.95 in 6.2 mi WSW 6.9 mph - N/A   Mostly Cloudy
3:00 PM 84.2 °F 32.0 °F 15% 29.95 in 6.2 mi SSW 11.5 mph - N/A   Mostly Cloudy
4:00 PM 82.4 °F 32.0 °F 16% 29.92 in 6.2 mi SW 13.8 mph - N/A   Scattered Clouds
5:00 PM 82 °F 32 °F 8%  in 19 mi SSW 12.7 mph - -   Scattered Clouds
5:00 PM 80.6 °F 32.0 °F 17% 29.92 in 6.2 mi SSW 11.5 mph - N/A   Scattered Clouds
6:00 PM 77.0 °F 32.0 °F 19% 29.95 in 6.2 mi SSW 10.4 mph - N/A   Scattered Clouds
7:00 PM 75.2 °F 37.4 °F 25% 29.95 in 6.2 mi SSE 4.6 mph - N/A   Mostly Cloudy
8:00 PM 73 °F 38 °F 17%  in 19 mi SSE 5.8 mph - -   Scattered Clouds
8:00 PM 71.6 °F 37.4 °F 29% 29.98 in 6.2 mi SSE 4.6 mph - N/A   Scattered Clouds
9:00 PM 73.4 °F 37.4 °F 27% 29.98 in - East 3.5 mph - N/A   Unknown
10:00 PM 73.4 °F 37.4 °F 27% 30.01 in - SSE 1.2 mph - N/A   Unknown
11:00 PM 74 °F 38 °F 17%  in - ENE 5.8 mph - -  
11:00 PM 73.4 °F 37.4 °F 27% 30.01 in - ENE 4.6 mph - N/A   Unknown